Flag for U.S.A. Weather past 2 weeks in Houston, Texas, U.S.A.

Now
64 °F

Fog.


Feels Like: 64 °F
Forecast: 66 / 84 °F
Wind: No wind

Location: Houston Hobby Airport


UV Index: 5 (Moderate)

Visibility: 1 mi


Pressure: 29.94 "Hg

Humidity: 94%

Dew point: 63 °F

Location of HoustonLocation

Historic Weather in Houston

°F

Houston temperature yesterday

Maximum temperature yesterday: 82 °F (at 3:53 PM)
Minimum temperature yesterday: 64 °F (at 2:53 AM)
Average temperature yesterday: 72 °F

Past Weeks' High & Low Weather Summary

 TemperatureHumidityPressure
High82 °F (Apr 22, 3:53 PM)100% (Apr 20, 6:53 AM)30.32 "Hg (Apr 20, 6:53 AM)
Low43 °F (Apr 15, 6:53 AM)19% (Apr 8, 5:53 PM)29.72 "Hg (Apr 14, 4:53 AM)
Average66 °F70%30.07 "Hg
* Reported Apr 8 7:53 AM — Apr 23 7:03 AM, Houston, Weather by CustomWeather, © 2014

Note: Actual official high and low records may vary slightly from our data, if they occured in-between our weather recording intervals... More about our weather records

Advertising

Historic Weather Conditions — Data for Previous 24 hours

 ConditionsComfort  
Time TempWeatherWind HumidityBarometerVisibility
7:03 AM
Apr 23
64 °FFog.No wind94%29.94 "Hg1 mi
5:53 AM65 °FFog.No wind97%29.94 "Hg1 mi
4:53 AM66 °FFog.No wind96%29.94 "Hg1 mi
3:53 AM66 °FFog.No wind96%29.93 "Hg0 mi
3:01 AM66 °FFog.No wind100%29.93 "Hg1 mi
2:04 AM68 °FLow clouds.5 mph94%29.94 "Hg9 mi
1:53 AM67 °FPassing clouds.3 mph97%29.96 "Hg9 mi
12:53 AM68 °FClear.3 mph93%29.96 "Hg9 mi
11:53 PM
Apr 22
69 °FClear.No wind90%29.96 "Hg10 mi
10:53 PM70 °FClear.3 mph87%29.95 "Hg10 mi
9:53 PM71 °FClear.6 mph87%29.94 "Hg10 mi
8:53 PM74 °FClear.6 mph79%29.92 "Hg10 mi
7:53 PM77 °FPassing clouds.7 mph71%29.90 "Hg10 mi
6:53 PM81 °FScattered clouds.5 mph56%29.90 "Hg10 mi
5:53 PM82 °FScattered clouds.No wind53%29.90 "Hg10 mi
4:53 PM82 °FScattered clouds.No wind55%29.92 "Hg10 mi
3:53 PM82 °FScattered clouds.No wind58%29.93 "Hg10 mi
2:53 PM79 °FScattered clouds.3 mph60%29.97 "Hg10 mi
1:53 PM77 °FOvercast.6 mph66%29.99 "Hg10 mi
12:53 PM76 °FOvercast.6 mph72%30.01 "Hg10 mi
11:53 AM73 °FOvercast.3 mph76%30.02 "Hg10 mi
10:53 AM73 °FOvercast.5 mph76%30.02 "Hg10 mi
9:53 AM71 °FOvercast.5 mph81%30.02 "Hg10 mi
8:53 AM70 °FCloudy.6 mph84%30.02 "Hg10 mi
7:53 AM69 °FPartly sunny.3 mph87%30.01 "Hg10 mi
Weather by CustomWeather, © 2014

See weather overview